Location: Unspecified
(43.4680°N, 87.1740°E)
Time: 04:30:35
(UTC+00:00)

Cosmos 1605 Rocket - Pass Details

Date: 17 April 2021
Orbit: 944 x 1006 km, 82.9° (Epoch: 16 May)

Event Time Altitude Azimuth Distance (km) Brightness Sun altitude
Rises 21:33:36 0° 353° (N) 3,623 7.4 -18.8°
Reaches altitude 10° 21:36:06 10° 355° (N) 2,676 6.7 -18.5°
Maximum altitude 21:42:13 78° 81° (E) 976 4.1 -17.5°
Drops below altitude 10° 21:48:21 10° 169° (SSE) 2,685 6.1 -16.6°
Sets 21:50:52 0° 170° (S) 3,635 6.8 -16.2°
